FENGYUN 1C DEB

Satellite information

Favourite Embed

Satellite Type and Status

DEBRISIN ORBIT

Key statistics

Satellite FENGYUN 1C DEB at a glance.

Uptime

9494

Days in orbit

Revolutions

≈ 14.5

Per day

Orbit

SSO

Sun Synchronous Orbit

Inclination

98.8

Latest

Satellite identification and parameters

Extended collection of information and parameters for FENGYUN 1C DEB.

Object identification

Identified? True

Debris? True

Object name: FENGYUN 1C DEB

International designator: 1999-025DSQ

Object number (NORAD): 36167

Object ID (CCSDS): 36167

Country: PEOPLES REPUBLIC OF CHINA (PRC)

Current information (Y/N): Y

RCS size: SMALL

Orbital parameters

Period: 99.491 minutes

Inclination: 98.8262 deg

SMA: 7112.386 km

Apoapsis: 785.178 km

Periapsis: 683.323 km

RAAN: 24.2245 deg

Eccentricy: 0.0071604

Argument of periapsis: 185.0343 deg

Mean anomaly: 175.0136 deg

Mean motion: 14.47370871 rev/day

Mean motion (dot): 0.00003546 rev/day2

B* drag term: 0.00094988 1/REarth

Two-line elements (TLE)

Creation date: May 7, 2025, 3:14 a.m.

Reference frame: TEME

Reference center: EARTH

Epoch: May 6, 2025, 12:32 p.m. UTC

TLE line 0: 0 FENGYUN 1C DEB

TLE line 1: 1 36167U 99025DSQ 25126.52254426 .00003546 00000-0 94988-3 0 9993

TLE line 2: 2 36167 98.8262 24.2245 0071604 185.0343 175.0136 14.47370871640927

Live tracking on map

Real-time ground track for satellite FENGYUN 1C DEB.

In-orbit conjunctions

A list of the most updated potential collisions computed for object FENGYUN 1C DEB.

Target Orbit TCA Probability of collision Miss distance Type
COSMOS 332 LEO 2025-02-11 09:13:38 0.0002621468 443.0 (m) PAYLOAD
COSMOS 1570 LEO 2025-01-28 16:55:37 0.0001051224 487.0 (m) PAYLOAD
CZ-6A DEB LEO 2024-10-10 06:09:26 0.000111023 869.0 (m) DEBRIS
CZ-6A DEB SSO 2024-06-13 13:13:44 0.0002713806 128.0 (m) DEBRIS

Associated space launch

Chinese polar orbiting meteorological satellite

FENGYUN 1C DEB was lifted into orbit during the mission ‘Long March 4B | Feng Yun 1C’, on board a Long March 4B space rocket.

The launch took place on May 10, 1999, 1:33 a.m. from Launch Complex 7.

For more information about the launch, click the button.

Launch to space Long March 4B | Feng Yun 1C
Long March 4B | Feng Yun 1C

Agency: N/A

Status: Launch Successful

Launch date: May 10, 1999, 1:33 a.m. UTC

Rocket: Long March 4B

Launch pad: Launch Complex 7

Location: Taiyuan Satellite Launch Center, People's Republic of China

...

Latest news about this satellite

There are no fresh news available about this satellite. Check back as we update our databases every day.


Newsletter sign-up

Weekly statistics, charts and insights to help you stay on top of the space industry.